TimeAKST,TemperatureF,Dew PointF,Humidity,Sea Level PressureIn,VisibilityMPH,Wind Direction,Wind SpeedMPH,Gust SpeedMPH,PrecipitationIn,Events,Conditions,WindDirDegrees,DateUTC
12:16 AM,-23.8,-27.4,83,-9999,10.0,Calm,Calm,-,N/A,,Clear,0,2014-02-09 09:16:00
12:36 AM,-25.6,-29.2,83,-9999,10.0,Calm,Calm,-,N/A,,Clear,0,2014-02-09 09:36:00
12:56 AM,-25.6,-29.2,83,-9999,10.0,Calm,Calm,-,N/A,,Clear,0,2014-02-09 09:56:00
1:16 AM,-25.6,-29.2,83,-9999,10.0,Calm,Calm,-,N/A,,Clear,0,2014-02-09 10:16:00
1:36 AM,-25.6,-31.0,76,-9999,10.0,Calm,Calm,-,N/A,,Clear,0,2014-02-09 10:36:00
1:56 AM,-27.4,-32.8,75,-9999,10.0,Calm,Calm,-,N/A,,Clear,0,2014-02-09 10:56:00
2:16 AM,-27.4,-31.0,83,-9999,10.0,Calm,Calm,-,N/A,,Clear,0,2014-02-09 11:16:00
2:36 AM,-25.6,-31.0,76,-9999,10.0,Calm,Calm,-,N/A,,Clear,0,2014-02-09 11:36:00
2:56 AM,-27.4,-32.8,75,-9999,10.0,Calm,Calm,-,N/A,,Clear,0,2014-02-09 11:56:00
3:16 AM,-27.4,-32.8,75,-9999,10.0,Calm,Calm,-,N/A,,Clear,0,2014-02-09 12:16:00
3:36 AM,-27.4,-32.8,75,-9999,10.0,Calm,Calm,-,N/A,,Clear,0,2014-02-09 12:36:00
3:56 AM,-27.4,-32.8,75,-9999,10.0,Calm,Calm,-,N/A,,Clear,0,2014-02-09 12:56:00
4:16 AM,-27.4,-34.6,69,-9999,10.0,Calm,Calm,-,N/A,,Clear,0,2014-02-09 13:16:00
4:36 AM,-29.2,-34.6,75,-9999,10.0,Calm,Calm,-,N/A,,Clear,0,2014-02-09 13:36:00
4:56 AM,-29.2,-34.6,75,-9999,10.0,Calm,Calm,-,N/A,,Clear,0,2014-02-09 13:56:00
5:16 AM,-29.2,-34.6,75,-9999,10.0,Calm,Calm,-,N/A,,Clear,0,2014-02-09 14:16:00
5:36 AM,-29.2,-36.4,68,-9999,10.0,Calm,Calm,-,N/A,,Clear,0,2014-02-09 14:36:00
5:56 AM,-31.0,-36.4,75,-9999,10.0,Calm,Calm,-,N/A,,Clear,0,2014-02-09 14:56:00
6:16 AM,-29.2,-34.6,75,-9999,10.0,Calm,Calm,-,N/A,,Clear,0,2014-02-09 15:16:00
6:36 AM,-31.0,-36.4,75,-9999,10.0,Calm,Calm,-,N/A,,Clear,0,2014-02-09 15:36:00
6:56 AM,-32.8,-36.4,83,-9999,10.0,Calm,Calm,-,N/A,,Clear,0,2014-02-09 15:56:00
7:16 AM,-31.0,-36.4,75,-9999,10.0,Calm,Calm,-,N/A,,Clear,0,2014-02-09 16:16:00
7:36 AM,-32.8,-36.4,83,-9999,10.0,Calm,Calm,-,N/A,,Clear,0,2014-02-09 16:36:00
7:56 AM,-32.8,-36.4,83,-9999,10.0,Calm,Calm,-,N/A,,Clear,0,2014-02-09 16:56:00
8:16 AM,-32.8,-38.2,75,-9999,10.0,Calm,Calm,-,N/A,,Clear,0,2014-02-09 17:16:00
8:36 AM,-32.8,-38.2,75,-9999,10.0,Calm,Calm,-,N/A,,Clear,0,2014-02-09 17:36:00
8:56 AM,-32.8,-36.4,83,-9999,10.0,Calm,Calm,-,N/A,,Clear,0,2014-02-09 17:56:00
9:16 AM,-32.8,-38.2,75,-9999,10.0,Calm,Calm,-,N/A,,Clear,0,2014-02-09 18:16:00
9:36 AM,-32.8,-38.2,75,-9999,10.0,Calm,Calm,-,N/A,,Clear,0,2014-02-09 18:36:00
9:56 AM,-32.8,-36.4,83,-9999,10.0,Calm,Calm,-,N/A,,Clear,0,2014-02-09 18:56:00
10:16 AM,-29.2,-32.8,83,-9999,10.0,Calm,Calm,-,N/A,,Clear,0,2014-02-09 19:16:00
10:36 AM,-25.6,-31.0,76,-9999,10.0,Calm,Calm,-,N/A,,Clear,0,2014-02-09 19:36:00
10:56 AM,-23.8,-29.2,76,-9999,10.0,Calm,Calm,-,N/A,,Clear,0,2014-02-09 19:56:00
11:16 AM,-20.2,-25.6,76,-9999,10.0,Calm,Calm,-,N/A,,Clear,0,2014-02-09 20:16:00
11:36 AM,-18.4,-25.6,70,-9999,10.0,Calm,Calm,-,N/A,,Clear,0,2014-02-09 20:36:00
11:56 AM,-16.6,-22.0,76,-9999,10.0,Calm,Calm,-,N/A,,Clear,0,2014-02-09 20:56:00
12:16 PM,-13.0,-20.2,70,-9999,10.0,Calm,Calm,-,N/A,,Clear,0,2014-02-09 21:16:00
12:36 PM,-11.2,-18.4,70,-9999,10.0,Calm,Calm,-,N/A,,Clear,0,2014-02-09 21:36:00
12:56 PM,-9.4,-16.6,71,-9999,10.0,Calm,Calm,-,N/A,,Clear,0,2014-02-09 21:56:00
1:16 PM,-7.6,-16.6,65,-9999,10.0,Calm,Calm,-,N/A,,Clear,0,2014-02-09 22:16:00
1:36 PM,-7.6,-14.8,71,-9999,10.0,Calm,Calm,-,N/A,,Clear,0,2014-02-09 22:36:00
1:56 PM,-5.8,-11.2,77,30.19,10.0,Calm,Calm,-,N/A,,Clear,0,2014-02-09 22:56:00
2:16 PM,-2.2,-9.4,71,30.18,10.0,NE,3.5,-,N/A,,Clear,50,2014-02-09 23:16:00
2:36 PM,-2.2,-9.4,71,30.17,10.0,NNE,5.8,-,N/A,,Clear,30,2014-02-09 23:36:00
2:56 PM,-2.2,-9.4,71,30.17,10.0,North,8.1,-,N/A,,Clear,360,2014-02-09 23:56:00
3:16 PM,-2.2,-7.6,78,30.16,10.0,NE,4.6,-,N/A,,Clear,40,2014-02-10 00:16:00
3:36 PM,-2.2,-7.6,78,30.16,10.0,NNE,6.9,-,N/A,,Clear,30,2014-02-10 00:36:00
3:56 PM,-2.2,-9.4,71,30.15,10.0,North,6.9,-,N/A,,Clear,360,2014-02-10 00:56:00
4:16 PM,-5.8,-9.4,84,30.15,10.0,North,11.5,16.1,N/A,,Clear,350,2014-02-10 01:16:00
4:36 PM,-5.8,-9.4,84,30.15,10.0,WNW,3.5,-,N/A,,Clear,300,2014-02-10 01:36:00
4:56 PM,-7.6,-9.4,92,30.15,10.0,North,5.8,-,N/A,,Clear,350,2014-02-10 01:56:00
5:16 PM,-7.6,-11.2,84,30.15,10.0,Calm,Calm,-,N/A,,Clear,0,2014-02-10 02:16:00
5:36 PM,-9.4,-13.0,84,30.15,10.0,NNE,3.5,-,N/A,,Clear,20,2014-02-10 02:36:00
5:56 PM,-9.4,-13.0,84,30.15,10.0,NE,4.6,-,N/A,,Clear,50,2014-02-10 02:56:00
6:16 PM,-13.0,-18.4,77,30.15,10.0,West,3.5,-,N/A,,Clear,270,2014-02-10 03:16:00
6:36 PM,-14.8,-20.2,77,30.15,10.0,Calm,Calm,-,N/A,,Clear,0,2014-02-10 03:36:00
6:56 PM,-16.6,-22.0,76,30.16,10.0,Calm,Calm,-,N/A,,Clear,0,2014-02-10 03:56:00
7:16 PM,-18.4,-23.8,76,30.16,10.0,Calm,Calm,-,N/A,,Clear,0,2014-02-10 04:16:00
7:36 PM,-20.2,-25.6,76,30.16,10.0,Calm,Calm,-,N/A,,Clear,0,2014-02-10 04:36:00
7:56 PM,-20.2,-25.6,76,30.15,10.0,Calm,Calm,-,N/A,,Clear,0,2014-02-10 04:56:00
8:16 PM,-22.0,-25.6,83,30.15,10.0,Calm,Calm,-,N/A,,Clear,0,2014-02-10 05:16:00
8:36 PM,-22.0,-27.4,76,30.15,10.0,Calm,Calm,-,N/A,,Clear,0,2014-02-10 05:36:00
8:56 PM,-23.8,-27.4,83,30.15,10.0,Calm,Calm,-,N/A,,Clear,0,2014-02-10 05:56:00
9:16 PM,-23.8,-27.4,83,-9999,10.0,Calm,Calm,-,N/A,,Clear,0,2014-02-10 06:16:00
9:36 PM,-23.8,-29.2,76,-9999,10.0,Calm,Calm,-,N/A,,Clear,0,2014-02-10 06:36:00
9:56 PM,-25.6,-31.0,76,-9999,10.0,Calm,Calm,-,N/A,,Clear,0,2014-02-10 06:56:00
10:16 PM,-25.6,-31.0,76,-9999,10.0,Calm,Calm,-,N/A,,Clear,0,2014-02-10 07:16:00
10:36 PM,-27.4,-31.0,83,-9999,10.0,Calm,Calm,-,N/A,,Clear,0,2014-02-10 07:36:00
10:56 PM,-27.4,-32.8,75,-9999,10.0,Calm,Calm,-,N/A,,Clear,0,2014-02-10 07:56:00
11:16 PM,-27.4,-34.6,69,-9999,10.0,Calm,Calm,-,N/A,,Clear,0,2014-02-10 08:16:00
11:36 PM,-29.2,-34.6,75,-9999,10.0,Calm,Calm,-,N/A,,Clear,0,2014-02-10 08:36:00
11:56 PM,-29.2,-34.6,75,-9999,10.0,Calm,Calm,-,N/A,,Clear,0,2014-02-10 08:56:00